DW4719 Vilanova I la Geltru ES current weather conditions

sailwx.info

Wind from 257 at 6 knots

Air temperature 12.2° C
Dewpoint 4.0° C

Last reported at 2016-Feb-14 17:55 UTC.
Time now 2016-Feb-14 18:59 UTC

Location: N 41°13' E 001°44'.
View on Google Maps.

See reports from other nearby stations

  
Tides and Currents Weather Stations Pressure Air Temp Water Temp Dewpoint Dewpoint Depression Visibility Wind Speed Wind Dir Waves Ship Positions
date/time (UTC)wind fromknots sea level pressurealtimeterstation pressurevisibilityair tempwater tempwave heightnotes
2016-Feb-14 17:55 257 6 12.2
2016-Feb-14 17:50 246 7 12.2
2016-Feb-14 17:45 264 6 12.8
2016-Feb-14 17:40 292 7 12.8
2016-Feb-14 17:35 267 7 12.8
2016-Feb-14 17:30 289 7 12.8
2016-Feb-14 17:25 287 7 12.8
2016-Feb-14 17:20 260 6 12.8
2016-Feb-14 17:15 250 6 13.3
2016-Feb-14 17:10 263 7 13.3
2016-Feb-14 17:04 265 4 13.9
2016-Feb-14 17:00 254 2 14.4
2016-Feb-14 16:55 258 2 14.4
2016-Feb-14 16:50 256 4 14.4
2016-Feb-14 16:45 264 4 15.0
2016-Feb-14 16:40 268 4 15.0
2016-Feb-14 16:35 277 4 15.6
2016-Feb-14 16:30 258 5 15.6
2016-Feb-14 16:25 270 7 15.6
2016-Feb-14 16:20 267 7 15.6
2016-Feb-14 16:15 277 7 15.6
2016-Feb-14 16:10 244 8 15.6
2016-Feb-14 16:04 264 9 15.6
2016-Feb-14 16:00 272 8 15.6
2016-Feb-14 15:55 272 6 16.1
2016-Feb-14 15:50 263 6 16.1
2016-Feb-14 15:45 258 7 16.1
2016-Feb-14 15:40 289 9 16.1
2016-Feb-14 15:35 254 8 16.1
2016-Feb-14 15:30 291 6 16.1
2016-Feb-14 15:25 260 6 16.1
2016-Feb-14 15:20 260 6 16.1
2016-Feb-14 15:15 256 4 16.7
2016-Feb-14 15:10 304 5 16.7
2016-Feb-14 15:04 257 5 16.7
2016-Feb-14 15:00 268 4 17.2
2016-Feb-14 14:55 244 3 17.2
2016-Feb-14 14:50 241 6 17.2
2016-Feb-14 14:45 294 6 17.2
2016-Feb-14 14:40 239 6 17.2
2016-Feb-14 14:35 291 6 17.2
2016-Feb-14 14:30 268 4 17.2
2016-Feb-14 14:25 285 5 16.7
2016-Feb-14 14:20 258 6 16.7
2016-Feb-14 14:15 261 6 16.7
2016-Feb-14 14:10 236 6 16.7
2016-Feb-14 14:05 302 6 17.2
2016-Feb-14 14:00 291 6 17.2
2016-Feb-14 13:55 261 6 16.7
2016-Feb-14 13:50 246 6 16.7
2016-Feb-14 13:45 275 7 16.7
2016-Feb-14 13:40 258 6 16.7
2016-Feb-14 13:35 274 6 16.7
2016-Feb-14 13:30 268 6 16.7
2016-Feb-14 13:25 278 7 16.7
2016-Feb-14 13:20 253 8 16.7
2016-Feb-14 13:15 250 8 16.7
2016-Feb-14 13:07 270 9 16.7
2016-Feb-14 13:05 294 8 16.7
2016-Feb-14 13:00 284 7 16.7
2016-Feb-14 12:55 248 8 16.7
2016-Feb-14 12:50 268 9 16.7
2016-Feb-14 12:45 287 8 16.7
2016-Feb-14 12:40 280 7 16.7
2016-Feb-14 12:35 271 7 16.7
2016-Feb-14 12:30 226 8 16.7
2016-Feb-14 12:25 253 8 16.7
2016-Feb-14 12:20 281 8 16.7
2016-Feb-14 12:15 260 9 16.7
2016-Feb-14 12:10 277 9 16.7
2016-Feb-14 12:04 263 7 16.7
2016-Feb-14 12:00 271 7 16.7
2016-Feb-14 11:55 234 7 16.7
2016-Feb-14 11:50 265 7 16.7
2016-Feb-14 11:45 271 6 16.7
2016-Feb-14 11:40 299 6 16.7
2016-Feb-14 11:35 264 8 16.1
2016-Feb-14 11:30 251 8 16.1
2016-Feb-14 11:25 274 9 16.1
2016-Feb-14 11:20 277 9 16.1
2016-Feb-14 11:15 267 7 16.1
2016-Feb-14 11:10 246 6 16.1
2016-Feb-14 11:04 277 6 16.1
2016-Feb-14 11:00 230 8 16.1
2016-Feb-14 10:55 251 9 16.1
2016-Feb-14 10:50 250 8 16.1
2016-Feb-14 10:45 244 6 16.1
2016-Feb-14 10:40 258 5 16.1
2016-Feb-14 10:35 288 6 16.1
2016-Feb-14 10:30 233 7 16.1
2016-Feb-14 10:25 270 8 16.1
2016-Feb-14 10:20 246 8 16.1
2016-Feb-14 10:15 223 8 16.1
2016-Feb-14 10:10 277 7 16.1
2016-Feb-14 10:05 263 7 16.1
2016-Feb-14 10:00 271 8 15.6
2016-Feb-14 09:55 302 7 15.6
2016-Feb-14 09:50 304 6 15.6
2016-Feb-14 09:45 267 6 15.6
2016-Feb-14 09:40 263 4 15.6
2016-Feb-14 09:35 325 1 15.6
2016-Feb-14 09:30 202 2 15.6
2016-Feb-14 09:25 318 3 15.6
2016-Feb-14 09:20 287 2 15.6
2016-Feb-14 09:15 192 0 15.6
2016-Feb-14 09:10 065 1 15.0
2016-Feb-14 09:05 298 3 15.0
2016-Feb-14 09:00 217 4 14.4
2016-Feb-14 08:55 247 2 14.4
2016-Feb-14 08:50 277 5 14.4
2016-Feb-14 08:45 294 5 14.4
2016-Feb-14 08:40 265 2 14.4
2016-Feb-14 08:35 224 3 14.4
2016-Feb-14 08:30 254 3 13.9
2016-Feb-14 08:25 227 2 13.9
2016-Feb-14 08:20 250 3 13.9
2016-Feb-14 08:15 278 3 13.9
2016-Feb-14 08:10 287 2 13.9
2016-Feb-14 08:05 251 2 14.4
2016-Feb-14 08:00 274 3 14.4
2016-Feb-14 07:55 268 5 14.4
2016-Feb-14 07:50 265 6 14.4
2016-Feb-14 07:45 250 8 14.4
2016-Feb-14 07:40 267 9 14.4
2016-Feb-14 07:35 291 7 15.0
2016-Feb-14 07:30 302 3 15.0
2016-Feb-14 07:25 278 15.0
2016-Feb-14 07:20 240 1 15.0
2016-Feb-14 07:15 298 4 15.0
2016-Feb-14 07:10 260 6 15.0
2016-Feb-14 07:05 243 11 15.0
2016-Feb-14 07:00 253 10 15.6
2016-Feb-14 06:55 265 7 15.0
2016-Feb-14 06:50 277 7 15.0
2016-Feb-14 06:45 280 6 14.4
2016-Feb-14 06:40 268 6 14.4
2016-Feb-14 06:35 281 6 14.4
2016-Feb-14 06:30 281 5 14.4
2016-Feb-14 06:25 263 5 14.4
2016-Feb-14 06:20 270 5 14.4
2016-Feb-14 06:15 281 6 14.4
2016-Feb-14 06:10 256 6 15.0
2016-Feb-14 06:04 292 6 15.0
2016-Feb-14 06:00 284 8 15.0
2016-Feb-14 05:55 257 7 15.0
2016-Feb-14 05:50 254 7 15.0
2016-Feb-14 05:45 263 7 15.0
2016-Feb-14 05:40 260 7 15.0
2016-Feb-14 05:35 278 7 15.0
2016-Feb-14 05:30 275 6 15.0
2016-Feb-14 05:25 295 8 15.0
2016-Feb-14 05:20 285 10 15.0
2016-Feb-14 05:15 267 10 15.6
2016-Feb-14 05:10 240 9 15.6
2016-Feb-14 05:04 296 9 15.6
2016-Feb-14 05:00 264 8 15.6
2016-Feb-14 04:55 271 8 15.6
2016-Feb-14 04:50 270 7 15.6
2016-Feb-14 04:45 271 7 15.6
2016-Feb-14 04:40 250 7 15.6
2016-Feb-14 04:35 312 6 15.6
2016-Feb-14 04:30 248 6 15.6
2016-Feb-14 04:25 247 8 15.6
2016-Feb-14 04:20 271 11 16.1
2016-Feb-14 04:15 275 9 16.1
2016-Feb-14 04:10 254 7 16.1
2016-Feb-14 04:04 274 7 16.1
2016-Feb-14 04:00 268 6 16.1
2016-Feb-14 03:55 257 8 16.1
2016-Feb-14 03:50 347 6 16.1
2016-Feb-14 03:45 216 2 16.1
2016-Feb-14 03:40 280 0 15.6
2016-Feb-14 03:35 328 15.0
2016-Feb-14 03:30 316 15.0
2016-Feb-14 03:25 316 15.0
2016-Feb-14 03:20 296 15.0
2016-Feb-14 03:15 271 0 15.0
2016-Feb-14 03:10 277 0 14.4
2016-Feb-14 03:04 272 13.9
2016-Feb-14 03:00 309 13.3
2016-Feb-14 02:55 260 12.8
2016-Feb-14 02:50 343 12.2
2016-Feb-14 02:45 360 12.2
2016-Feb-14 02:40 350 12.2
2016-Feb-14 02:35 349 12.2
2016-Feb-14 02:30 349 12.2
2016-Feb-14 02:25 349 12.2
2016-Feb-14 02:20 349 12.2
2016-Feb-14 02:15 349 12.2
2016-Feb-14 02:10 349 12.2
2016-Feb-14 02:04 349 12.2
2016-Feb-14 02:00 347 12.2
2016-Feb-14 01:55 346 12.8
2016-Feb-14 01:50 344 12.8
2016-Feb-14 01:45 344 12.8
2016-Feb-14 01:40 343 12.8
2016-Feb-14 01:35 343 12.8
2016-Feb-14 01:30 340 12.8
2016-Feb-14 01:25 340 12.8
2016-Feb-14 01:20 340 12.8
2016-Feb-14 01:15 340 12.8
2016-Feb-14 01:10 340 12.8
2016-Feb-14 01:04 340 12.8
2016-Feb-14 01:00 340 13.3
2016-Feb-14 00:55 340 13.3
2016-Feb-14 00:50 258 13.3
2016-Feb-14 00:45 258 13.3
2016-Feb-14 00:40 258 13.3
2016-Feb-14 00:35 258 12.8
2016-Feb-14 00:30 258 12.8
2016-Feb-14 00:25 258 12.8
2016-Feb-14 00:20 258 12.8
2016-Feb-14 00:15 258 12.8
2016-Feb-14 00:10 258 12.8
2016-Feb-14 00:04 258 12.8
2016-Feb-14 00:00 258 12.8
2016-Feb-13 23:55 258 12.8
2016-Feb-13 23:50 260 13.3
2016-Feb-13 23:45 258 12.8
2016-Feb-13 23:40 258 12.8
2016-Feb-13 23:35 258 13.3
2016-Feb-13 23:30 257 13.3
2016-Feb-13 23:25 257 12.8
2016-Feb-13 23:20 257 12.8
2016-Feb-13 23:15 257 12.8
2016-Feb-13 23:10 260 12.8
2016-Feb-13 23:05 260 12.8
2016-Feb-13 23:00 260 12.8
2016-Feb-13 22:55 260 12.8
2016-Feb-13 22:50 260 13.3
2016-Feb-13 22:45 260 13.3
2016-Feb-13 22:40 260 13.3
2016-Feb-13 22:35 260 13.3
2016-Feb-13 22:30 244 0 13.3
2016-Feb-13 22:25 179 2 13.3
2016-Feb-13 22:20 250 6 13.3
2016-Feb-13 22:15 257 7 13.9
2016-Feb-13 22:10 323 3 15.0
2016-Feb-13 22:04 319 15.6
2016-Feb-13 22:00 195 15.6
2016-Feb-13 21:55 192 15.6
2016-Feb-13 21:50 192 15.6
2016-Feb-13 21:45 192 15.6
2016-Feb-13 21:40 192 15.6
2016-Feb-13 21:35 192 15.6
2016-Feb-13 21:30 192 15.6
2016-Feb-13 21:25 191 15.6
2016-Feb-13 21:20 191 15.6
2016-Feb-13 21:15 200 15.6
2016-Feb-13 21:10 198 16.1
2016-Feb-13 21:04 206 16.1
2016-Feb-13 21:00 203 16.7
2016-Feb-13 20:55 203 16.7
2016-Feb-13 20:50 203 16.7
2016-Feb-13 20:45 203 17.2
2016-Feb-13 20:40 222 17.2
2016-Feb-13 20:35 254 17.8
2016-Feb-13 20:30 258 17.8
2016-Feb-13 20:25 261 17.8
2016-Feb-13 20:20 323 17.8
2016-Feb-13 20:15 323 17.8
2016-Feb-13 20:10 330 17.8
2016-Feb-13 20:05 330 17.8
2016-Feb-13 20:00 330 17.8
2016-Feb-13 19:55 330 17.8
2016-Feb-13 19:50 330 17.8
2016-Feb-13 19:45 330 17.8
2016-Feb-13 19:40 329 17.8
2016-Feb-13 19:35 329 17.8
2016-Feb-13 19:30 332 18.3
2016-Feb-13 19:25 332 18.3
2016-Feb-13 19:20 309 1 18.3
2016-Feb-13 19:15 323 3 18.3
2016-Feb-13 19:10 330 2 18.3
2016-Feb-13 19:05 328 1 18.3
2016-Feb-13 19:00 291 1 18.3
2016-Feb-13 18:55 311 2 18.9
2016-Feb-13 18:50 347 3 18.9
2016-Feb-13 18:45 240 4 18.9
2016-Feb-13 18:31 263 6 20.0
2016-Feb-13 18:30 258 6 20.0
2016-Feb-13 18:25 265 6 20.0
2016-Feb-13 18:20 241 3 20.0
2016-Feb-13 18:15 305 4 19.4
2016-Feb-13 18:10 284 4 18.9
2016-Feb-13 18:05 271 4 18.9
2016-Feb-13 18:00 265 4 18.3
2016-Feb-13 17:55 268 1 17.8
2016-Feb-13 17:50 248 0 17.2
2016-Feb-13 17:45 239 17.2
2016-Feb-13 17:40 237 0 17.2
2016-Feb-13 17:35 237 1 17.2
2016-Feb-13 17:30 241 2 17.2
2016-Feb-13 17:25 229 2 17.8
2016-Feb-13 17:20 229 2 17.8
2016-Feb-13 17:15 240 2 17.8
2016-Feb-13 17:10 233 3 17.8
2016-Feb-13 17:05 224 3 17.8
2016-Feb-13 17:00 226 3 18.3
2016-Feb-13 16:55 215 5 18.9
2016-Feb-13 16:50 243 6 18.9
2016-Feb-13 16:45 237 6 18.9
2016-Feb-13 16:40 260 6 18.9
2016-Feb-13 16:35 251 6 18.9
2016-Feb-13 16:30 247 5 18.9
2016-Feb-13 16:25 253 6 18.9
2016-Feb-13 16:20 256 6 18.9
2016-Feb-13 16:15 212 6 18.9
2016-Feb-13 16:10 196 6 18.9
2016-Feb-13 16:05 226 6 18.9
2016-Feb-13 16:00 208 5 18.9
2016-Feb-13 15:55 229 4 18.9
2016-Feb-13 15:50 217 3 18.9
2016-Feb-13 15:45 241 3 18.9
2016-Feb-13 15:40 232 3 18.9
2016-Feb-13 15:35 186 3 18.9
2016-Feb-13 15:30 232 3 18.9
2016-Feb-13 15:25 230 3 18.9
2016-Feb-13 15:20 215 4 18.9
2016-Feb-13 15:15 224 5 18.9
2016-Feb-13 15:10 175 4 19.4
2016-Feb-13 15:05 188 4 20.6
2016-Feb-13 15:00 230 6 21.7
2016-Feb-13 14:55 239 6 21.7
2016-Feb-13 14:50 250 6 21.7
2016-Feb-13 14:45 234 3 21.1
2016-Feb-13 14:40 226 21.1
2016-Feb-13 14:35 294 0 21.1
2016-Feb-13 14:30 246 3 20.6
2016-Feb-13 14:25 224 4 20.0
2016-Feb-13 14:20 222 4 20.0
2016-Feb-13 14:15 215 5 20.0
2016-Feb-13 14:10 243 6 20.0
2016-Feb-13 14:04 254 6 20.0
2016-Feb-13 14:00 227 7 20.6
2016-Feb-13 13:55 263 7 21.1
2016-Feb-13 13:50 254 7 21.7
2016-Feb-13 13:45 260 9 21.7
2016-Feb-13 13:40 282 11 22.2
2016-Feb-13 13:35 260 9 22.2
2016-Feb-13 13:30 274 6 22.2
2016-Feb-13 13:25 274 6 22.2
2016-Feb-13 13:20 281 7 21.7
2016-Feb-13 13:15 261 7 21.7
2016-Feb-13 13:10 240 8 21.7
2016-Feb-13 13:05 260 9 21.7
2016-Feb-13 13:00 319 10 21.7
2016-Feb-13 12:55 352 9 21.7
2016-Feb-13 12:50 275 8 21.7
2016-Feb-13 12:45 240 8 21.7
2016-Feb-13 12:40 271 8 22.2
2016-Feb-13 12:35 254 9 21.7
2016-Feb-13 12:30 291 8 21.7
2016-Feb-13 12:25 278 8 21.7
2016-Feb-13 12:20 247 8 21.7
2016-Feb-13 12:15 282 8 22.2
2016-Feb-13 12:10 284 10 22.2
2016-Feb-13 12:05 263 9 22.2
2016-Feb-13 12:00 267 6 22.2
2016-Feb-13 11:55 278 9 22.2
2016-Feb-13 11:50 202 10 21.7
2016-Feb-13 11:45 275 9 21.7
2016-Feb-13 11:40 270 8 21.7
2016-Feb-13 11:35 281 8 21.1
2016-Feb-13 11:30 260 7 21.1
2016-Feb-13 11:25 246 7 21.1
2016-Feb-13 11:20 312 6 20.6
2016-Feb-13 11:15 250 7 20.6
2016-Feb-13 11:10 240 8 20.6
2016-Feb-13 11:05 291 9 20.0
2016-Feb-13 11:00 268 12 20.6
2016-Feb-13 10:55 247 12 20.6
2016-Feb-13 10:50 288 10 20.6
2016-Feb-13 10:45 284 9 20.6
2016-Feb-13 10:40 260 6 20.0
2016-Feb-13 10:35 274 4 19.4
2016-Feb-13 10:30 291 5 19.4
2016-Feb-13 10:25 250 4 19.4
2016-Feb-13 10:20 257 3 19.4
2016-Feb-13 10:15 241 3 19.4
2016-Feb-13 10:10 253 4 19.4
2016-Feb-13 10:05 267 5 19.4
2016-Feb-13 10:00 248 5 18.9
2016-Feb-13 09:55 250 3 18.9
2016-Feb-13 09:50 265 2 18.3
2016-Feb-13 09:45 248 2 17.8
2016-Feb-13 09:40 241 17.8
2016-Feb-13 09:35 223 17.2
2016-Feb-13 09:30 226 17.8
2016-Feb-13 09:25 229 18.3
2016-Feb-13 09:20 237 18.9
2016-Feb-13 09:15 264 0 18.9
2016-Feb-13 09:10 264 2 18.9
2016-Feb-13 09:04 244 4 18.9
2016-Feb-13 09:00 309 5 18.9
2016-Feb-13 08:55 264 2 18.3
2016-Feb-13 08:50 254 0 18.3
2016-Feb-13 08:45 246 17.8
2016-Feb-13 08:40 226 17.8
2016-Feb-13 08:35 226 17.2
2016-Feb-13 08:30 199 17.2
2016-Feb-13 08:25 200 17.2
2016-Feb-13 08:20 200 17.2
2016-Feb-13 08:15 200 17.2
2016-Feb-13 08:10 291 17.2
2016-Feb-13 08:05 291 17.2
2016-Feb-13 08:00 291 17.2
2016-Feb-13 07:55 291 16.7
2016-Feb-13 07:50 301 16.7
2016-Feb-13 07:45 301 16.7
2016-Feb-13 07:40 302 16.7
2016-Feb-13 07:35 302 16.1
2016-Feb-13 07:29 302 16.1
2016-Feb-13 07:25 302 16.1
2016-Feb-13 07:20 302 16.1
2016-Feb-13 07:15 302 16.1
2016-Feb-13 07:10 302 16.1
2016-Feb-13 07:04 267 16.1
2016-Feb-13 07:00 267 16.1
2016-Feb-13 06:55 267 16.1
2016-Feb-13 06:50 267 16.1
2016-Feb-13 06:45 264 16.1
2016-Feb-13 06:40 258 16.1
2016-Feb-13 06:35 261 16.1
2016-Feb-13 06:30 253 16.1
2016-Feb-13 06:25 280 16.1
2016-Feb-13 06:20 280 16.1
2016-Feb-13 06:15 282 16.1
2016-Feb-13 06:10 282 16.1
2016-Feb-13 06:05 282 16.1
2016-Feb-13 06:00 282 16.1
2016-Feb-13 05:55 278 16.1
2016-Feb-13 05:50 278 16.1
2016-Feb-13 05:45 278 16.1
2016-Feb-13 05:40 278 16.1
2016-Feb-13 05:35 280 16.1
2016-Feb-13 05:30 281 16.1
2016-Feb-13 05:25 289 0 16.1
2016-Feb-13 05:20 270 16.1
2016-Feb-13 05:15 294 15.6
2016-Feb-13 05:10 275 15.6
2016-Feb-13 05:04 275 15.6
2016-Feb-13 05:00 275 15.6
2016-Feb-13 04:55 275 15.6
2016-Feb-13 04:50 275 15.6
2016-Feb-13 04:45 274 16.1
2016-Feb-13 04:40 277 16.1
2016-Feb-13 04:35 277 16.1
2016-Feb-13 04:30 240 15.6
2016-Feb-13 04:25 248 15.6
2016-Feb-13 04:20 248 15.6
2016-Feb-13 04:15 251 16.1
2016-Feb-13 04:10 260 16.1
2016-Feb-13 04:05 260 16.1
2016-Feb-13 04:00 263 16.7
2016-Feb-13 03:55 264 16.7
2016-Feb-13 03:50 216 16.7
2016-Feb-13 03:45 295 16.7
2016-Feb-13 03:40 299 16.7
2016-Feb-13 03:35 285 16.7
2016-Feb-13 03:30 272 16.7
2016-Feb-13 03:25 270 16.7
2016-Feb-13 03:20 251 16.7
2016-Feb-13 03:15 263 0 16.7
2016-Feb-13 03:10 258 2 16.7
2016-Feb-13 03:04 268 5 16.7
2016-Feb-13 03:00 261 5 16.7
2016-Feb-13 02:55 253 5 16.7
2016-Feb-13 02:50 281 5 16.7
2016-Feb-13 02:45 179 4 16.1
2016-Feb-13 02:40 278 5 16.1
2016-Feb-13 02:35 230 6 16.1
2016-Feb-13 02:30 289 6 16.1
2016-Feb-13 02:25 237 4 16.1
2016-Feb-13 02:20 319 2 16.1
2016-Feb-13 02:15 270 2 15.6
2016-Feb-13 02:10 268 3 15.6
2016-Feb-13 02:04 275 2 15.6
2016-Feb-13 02:00 268 4 15.6
2016-Feb-13 01:55 278 4 15.6
2016-Feb-13 01:50 275 2 15.6
2016-Feb-13 01:45 260 1 16.1
2016-Feb-13 01:40 243 2 16.1
2016-Feb-13 01:35 291 3 16.1
2016-Feb-13 01:30 265 2 16.1
2016-Feb-13 01:25 298 2 16.7
2016-Feb-13 01:20 360 1 16.7
2016-Feb-13 01:15 325 0 16.7
2016-Feb-13 01:10 313 0 16.7
2016-Feb-13 01:04 316 17.2
2016-Feb-13 01:00 325 17.2
2016-Feb-13 00:55 280 17.2
2016-Feb-13 00:50 248 1 17.8
2016-Feb-13 00:37 272 1 18.3
2016-Feb-13 00:35 250 0 18.3
2016-Feb-13 00:30 250 0 18.3
2016-Feb-13 00:25 343 1 18.3
2016-Feb-13 00:20 264 1 18.3
2016-Feb-13 00:15 306 0 18.3
2016-Feb-13 00:10 289 0 18.3
2016-Feb-13 00:04 243 1 18.3
2016-Feb-13 00:00 233 1 18.3
2016-Feb-12 23:55 260 0 18.3
2016-Feb-12 23:50 312 0 18.3
2016-Feb-12 23:45 339 0 18.3
2016-Feb-12 23:40 240 1 18.3
2016-Feb-12 23:35 253 2 18.3
2016-Feb-12 23:30 265 4 18.3
2016-Feb-12 23:25 275 4 18.3
2016-Feb-12 23:20 260 3 18.3
2016-Feb-12 23:15 254 1 17.8
2016-Feb-12 23:10 277 0 17.8
2016-Feb-12 23:04 281 17.8
2016-Feb-12 23:00 244 17.8
2016-Feb-12 22:55 264 0 17.8
2016-Feb-12 22:50 267 0 17.8
2016-Feb-12 22:45 267 0 17.8
2016-Feb-12 22:40 257 1 17.8
2016-Feb-12 22:35 305 0 17.8
2016-Feb-12 22:30 230 0 17.8
2016-Feb-12 22:25 264 0 17.8
2016-Feb-12 22:20 258 17.8
2016-Feb-12 22:15 265 17.8
2016-Feb-12 22:10 265 17.8
2016-Feb-12 22:04 246 1 17.8
2016-Feb-12 22:00 271 0 17.8
2016-Feb-12 21:55 267 0 17.8
2016-Feb-12 21:50 278 0 17.8
2016-Feb-12 21:45 302 0 17.8
2016-Feb-12 21:40 270 1 17.8
2016-Feb-12 21:35 288 0 17.8
2016-Feb-12 21:30 260 17.8
2016-Feb-12 21:25 263 0 17.8
2016-Feb-12 21:20 284 0 17.8
2016-Feb-12 21:15 257 0 17.8
2016-Feb-12 21:10 258 0 17.8
2016-Feb-12 21:04 319 0 17.8
2016-Feb-12 21:00 302 0 17.8
2016-Feb-12 20:55 254 0 18.3
2016-Feb-12 20:50 288 18.3
2016-Feb-12 20:45 308 0 18.3
2016-Feb-12 20:40 277 0 18.3
2016-Feb-12 20:35 285 17.8
2016-Feb-12 20:30 311 17.8
2016-Feb-12 20:25 325 17.8
2016-Feb-12 20:20 296 17.8
2016-Feb-12 20:15 296 17.8
2016-Feb-12 20:10 296 17.8
2016-Feb-12 20:04 296 17.8
2016-Feb-12 20:00 296 17.8
2016-Feb-12 19:55 296 17.8
2016-Feb-12 19:50 296 17.8
2016-Feb-12 19:45 296 17.8
2016-Feb-12 19:40 296 17.8
2016-Feb-12 19:35 296 17.8
2016-Feb-12 19:30 296 17.2
2016-Feb-12 19:25 256 17.2
2016-Feb-12 19:20 256 16.7
2016-Feb-12 19:14 277 16.1
2016-Feb-12 19:10 278 16.1
2016-Feb-12 19:04 278 16.1
2016-Feb-12 19:00 278 15.6
2016-Feb-12 18:55 126 15.6
2016-Feb-12 18:50 126 15.6
2016-Feb-12 18:45 126 15.6
2016-Feb-12 18:40 126 15.6
2016-Feb-12 18:35 126 15.6
2016-Feb-12 18:30 126 15.6
2016-Feb-12 18:25 127 15.6
2016-Feb-12 18:20 126 15.6
2016-Feb-12 18:15 126 15.6
2016-Feb-12 18:10 126 15.6
2016-Feb-12 18:05 126 15.6
2016-Feb-12 18:00 126 15.6